User: anonymous   Login
Location: PACMO
(41.3967°N, 90.3760°W)
Time: 17:02:36
(UTC-05:00)
Language:

NOAA 19 - Orbit

View from above orbital plane
View from above orbital plane
View from above satellite
View from above satellite

Ground track
Ground track

The orbit data is extracted from the following two-line orbital elements,

1 33591U 09005A   16148.53909863  .00000102  00000-0  80421-4 0  9990
2 33591  99.0384 105.1444 0012918 278.4828  81.4879 14.12075614376223
Epoch (UTC): 27 May 2016 12:56:18
Eccentricity: 0.0012918
inclination: 99.0384°
perigee height: 843 km
apogee height: 861 km
right ascension of ascending node: 105.1444°
argument of perigee: 278.4828°
revolutions per day: 14.12075614
mean anomaly at epoch: 81.4879°
orbit number at epoch: 37622

The dashed part of the orbit path shows where the satellite is in the earth's shadow,  

DLR